TimeMST,TemperatureF,Dew PointF,Humidity,Sea Level PressureIn,VisibilityMPH,Wind Direction,Wind SpeedMPH,Gust SpeedMPH,PrecipitationIn,Events,Conditions,WindDirDegrees,DateUTC
12:15 AM,35.6,17.6,48,29.88,10.0,WNW,17.3,21.9,N/A,,Clear,290,2012-12-06 07:15:00
12:35 AM,33.8,17.6,52,29.90,10.0,WNW,13.8,20.7,N/A,,Clear,290,2012-12-06 07:35:00
12:55 AM,33.8,17.6,52,29.91,10.0,WNW,13.8,-,N/A,,Clear,290,2012-12-06 07:55:00
1:15 AM,33.8,17.6,52,29.92,10.0,WNW,15.0,-,N/A,,Clear,290,2012-12-06 08:15:00
1:35 AM,33.8,17.6,52,29.94,10.0,West,11.5,-,N/A,,Clear,280,2012-12-06 08:35:00
1:55 AM,32.0,17.6,55,29.95,10.0,West,10.4,-,N/A,,Clear,280,2012-12-06 08:55:00
2:15 AM,32.0,19.4,60,29.95,10.0,WNW,12.7,17.3,N/A,,Clear,300,2012-12-06 09:15:00
2:35 AM,33.8,17.6,52,29.97,10.0,WNW,12.7,-,N/A,,Clear,300,2012-12-06 09:35:00
2:55 AM,32.0,17.6,55,29.97,10.0,WNW,10.4,-,N/A,,Clear,290,2012-12-06 09:55:00
3:15 AM,30.2,17.6,60,29.97,10.0,West,8.1,-,N/A,,Clear,280,2012-12-06 10:15:00
3:35 AM,28.4,17.6,64,29.97,10.0,West,9.2,-,N/A,,Clear,280,2012-12-06 10:35:00
3:55 AM,26.6,17.6,69,29.97,10.0,West,10.4,-,N/A,,Clear,270,2012-12-06 10:55:00
4:15 AM,26.6,17.6,69,29.97,10.0,West,9.2,-,N/A,,Clear,280,2012-12-06 11:15:00
4:35 AM,26.6,17.6,69,29.98,10.0,West,10.4,-,N/A,,Clear,280,2012-12-06 11:35:00
4:55 AM,24.8,15.8,69,29.98,10.0,West,9.2,-,N/A,,Clear,280,2012-12-06 11:55:00
5:15 AM,24.8,15.8,69,29.97,10.0,West,9.2,-,N/A,,Clear,280,2012-12-06 12:15:00
5:35 AM,24.8,15.8,69,29.98,10.0,West,10.4,-,N/A,,Clear,280,2012-12-06 12:35:00
5:55 AM,23.0,15.8,74,29.98,10.0,West,8.1,-,N/A,,Clear,280,2012-12-06 12:55:00
6:15 AM,24.8,17.6,74,29.98,10.0,West,10.4,-,N/A,,Clear,280,2012-12-06 13:15:00
6:35 AM,24.8,17.6,74,29.98,10.0,West,8.1,-,N/A,,Clear,280,2012-12-06 13:35:00
6:55 AM,23.0,15.8,74,29.98,10.0,WNW,9.2,-,N/A,,Clear,290,2012-12-06 13:55:00
7:15 AM,23.0,15.8,74,29.98,10.0,WNW,10.4,-,N/A,,Clear,290,2012-12-06 14:15:00
7:55 AM,21.2,14.0,74,29.99,10.0,West,9.2,-,N/A,,Clear,280,2012-12-06 14:55:00
8:15 AM,24.8,17.6,74,29.99,10.0,WNW,6.9,-,N/A,,Clear,290,2012-12-06 15:15:00
8:35 AM,24.8,19.4,80,30.00,10.0,WNW,9.2,-,N/A,,Clear,290,2012-12-06 15:35:00
8:55 AM,28.4,19.4,69,30.00,10.0,WNW,4.6,-,N/A,,Clear,290,2012-12-06 15:55:00
9:15 AM,28.4,17.6,64,30.00,10.0,West,8.1,-,N/A,,Clear,280,2012-12-06 16:15:00
9:55 AM,30.2,19.4,64,30.00,10.0,South,4.6,-,N/A,,Clear,190,2012-12-06 16:55:00
10:15 AM,32.0,17.6,55,30.00,10.0,SSW,5.8,-,N/A,,Partly Cloudy,210,2012-12-06 17:15:00
10:35 AM,30.2,19.4,64,30.00,10.0,South,3.5,-,N/A,,Clear,170,2012-12-06 17:35:00
10:55 AM,30.2,19.4,64,30.00,10.0,SE,8.1,-,N/A,,Clear,140,2012-12-06 17:55:00
11:15 AM,33.8,19.4,56,29.98,10.0,SSE,6.9,-,N/A,,Clear,160,2012-12-06 18:15:00
11:35 AM,37.4,19.4,48,29.97,10.0,SSW,8.1,-,N/A,,Clear,210,2012-12-06 18:35:00
11:55 AM,37.4,19.4,48,29.96,10.0,SW,9.2,-,N/A,,Clear,230,2012-12-06 18:55:00
12:15 PM,37.4,17.6,45,29.95,10.0,WSW,11.5,-,N/A,,Clear,250,2012-12-06 19:15:00
12:55 PM,41.0,15.8,36,29.94,10.0,West,16.1,-,N/A,,Clear,270,2012-12-06 19:55:00
1:15 PM,39.2,15.8,39,29.93,10.0,West,12.7,-,N/A,,Clear,260,2012-12-06 20:15:00
1:35 PM,42.8,17.6,36,29.93,10.0,WSW,13.8,19.6,N/A,,Scattered Clouds,240,2012-12-06 20:35:00
1:55 PM,42.8,17.6,36,29.92,10.0,WSW,15.0,24.2,N/A,,Mostly Cloudy,240,2012-12-06 20:55:00
2:15 PM,41.0,19.4,42,29.92,10.0,WSW,16.1,25.3,N/A,,Scattered Clouds,240,2012-12-06 21:15:00
2:35 PM,39.2,17.6,42,29.92,10.0,WSW,13.8,-,N/A,,Scattered Clouds,240,2012-12-06 21:35:00
2:55 PM,39.2,19.4,45,29.91,10.0,SW,9.2,-,N/A,,Partly Cloudy,230,2012-12-06 21:55:00
3:35 PM,37.4,19.4,48,29.91,10.0,SW,8.1,-,N/A,,Clear,230,2012-12-06 22:35:00
3:55 PM,35.6,19.4,52,29.91,10.0,WSW,10.4,-,N/A,,Clear,240,2012-12-06 22:55:00
4:15 PM,35.6,19.4,52,29.91,10.0,WSW,9.2,-,N/A,,Clear,240,2012-12-06 23:15:00
4:35 PM,35.6,19.4,52,29.90,10.0,WSW,9.2,-,N/A,,Clear,250,2012-12-06 23:35:00
4:55 PM,35.6,19.4,52,29.90,10.0,WSW,9.2,-,N/A,,Clear,250,2012-12-06 23:55:00
5:15 PM,33.8,19.4,56,29.90,10.0,West,6.9,-,N/A,,Clear,270,2012-12-07 00:15:00
5:35 PM,32.0,17.6,55,29.90,10.0,West,9.2,-,N/A,,Scattered Clouds,260,2012-12-07 00:35:00
5:55 PM,30.2,17.6,60,29.90,10.0,West,8.1,-,N/A,,Mostly Cloudy,270,2012-12-07 00:55:00
6:15 PM,30.2,19.4,64,29.91,10.0,West,8.1,-,N/A,,Scattered Clouds,260,2012-12-07 01:15:00
6:55 PM,30.2,19.4,64,29.91,10.0,West,6.9,-,N/A,,Clear,260,2012-12-07 01:55:00
7:35 PM,28.4,19.4,69,29.90,10.0,West,8.1,-,N/A,,Clear,270,2012-12-07 02:35:00
7:55 PM,28.4,19.4,69,29.90,10.0,West,5.8,-,N/A,,Clear,280,2012-12-07 02:55:00
8:15 PM,26.6,17.6,69,29.90,10.0,West,6.9,-,N/A,,Partly Cloudy,280,2012-12-07 03:15:00
8:35 PM,26.6,19.4,74,29.90,10.0,WNW,9.2,-,N/A,,Clear,300,2012-12-07 03:35:00
8:55 PM,26.6,19.4,74,29.90,10.0,West,5.8,-,N/A,,Clear,280,2012-12-07 03:55:00
9:15 PM,26.6,19.4,74,29.89,10.0,WNW,5.8,-,N/A,,Clear,290,2012-12-07 04:15:00
9:55 PM,24.8,17.6,74,29.89,10.0,West,5.8,-,N/A,,Clear,280,2012-12-07 04:55:00
10:15 PM,24.8,17.6,74,29.89,10.0,Calm,Calm,-,N/A,,Clear,0,2012-12-07 05:15:00
10:35 PM,26.6,19.4,74,29.90,10.0,Calm,Calm,-,N/A,,Scattered Clouds,0,2012-12-07 05:35:00
10:55 PM,28.4,17.6,64,29.89,10.0,Calm,Calm,-,N/A,,Mostly Cloudy,0,2012-12-07 05:55:00
11:15 PM,28.4,17.6,64,29.89,10.0,Calm,Calm,-,N/A,,Partly Cloudy,0,2012-12-07 06:15:00
11:35 PM,26.6,17.6,69,29.88,10.0,Calm,Calm,-,N/A,,Scattered Clouds,0,2012-12-07 06:35:00
11:55 PM,26.6,17.6,69,29.88,10.0,Calm,Calm,-,N/A,,Scattered Clouds,0,2012-12-07 06:55:00